Dewpoint
30 27 27 27 26 26 26 23 22 22 22 26 38 39 40 41 42 44 45 50 52 49 48 50 52 53 53 54 57 59 59 58 56 58 59 59 60 61 63 63 62 63 64 67 69 68 68 69 69 70 70 70 70 70 70 70 70 70 70 70 70 71 72 71 70 72 72 72 72 72 71 71 70 71 72 71 71 72 72 72 72 72 73 72 72 72
28 27 28 27 26 26 26 25 24 23 22 20 30 38 38 41 42 43 46 51 53 48 48 52 52 52 53 54 55 56 57 57 55 56 57 57 58 62 63 62 62 63 67 69 68 68 67 67 68 69 69 71 69 69 70 69 70 70 70 70 70 71 71 71 71 72 73 73 72 71 70 70 70 70 70 70 71 71 72 72 72 72 72 72 71 72
27 26 26 27 27 27 28 25 23 20 23 30 26 35 37 40 41 45 50 51 52 50 48 50 50 52 53 56 58 56 55 57 56 56 57 57 60 61 62 62 64 66 68 68 68 68 66 67 67 68 68 68 68 69 69 69 69 69 70 70 71 71 71 71 74 73 73 72 71 70 70 70 70 71 72 72 72 71 71 72 72 72 71 71 71 71
25 25 26 27 26 23 22 23 21 14 24 33 35 34 33 39 39 40 46 51 52 48 49 51 50 51 53 54 56 58 59 58 60 59 59 61 60 61 62 63 64 67 67 67 67 66 66 67 67 68 68 68 68 68 68 69 69 69 70 70 71 71 72 73 74 75 74 73 72 71 71 71 71 70 72 70 70 71 71 71 71 72 72 71 71 71
25 25 27 26 23 22 22 21 20 12 7 20 33 30 33 37 37 43 45 49 51 51 52 50 49 48 50 53 53 55 58 58 59 60 61 62 63 65 66 67 67 67 67 66 66 65 65 66 67 68 68 68 68 68 68 69 69 70 70 70 71 71 72 73 74 73 73 71 69 69 69 70 70 70 69 69 69 70 71 70 70 71 72 72 71 71
24 25 27 23 23 21 20 18 19 16 13 10 16 30 35 37 42 46 47 45 46 46 48 44 40 42 48 52 54 55 55 56 58 59 61 62 64 65 65 66 67 67 66 66 65 65 65 66 67 68 68 68 68 68 69 69 70 70 70 70 69 69 70 70 71 72 71 70 69 68 66 66 66 66 66 67 68 69 69 69 70 70 71 72 71 71
26 27 24 24 23 21 20 20 21 15 12 14 15 19 33 41 46 45 43 42 42 42 46 45 38 38 45 49 52 54 55 56 58 60 61 62 63 64 64 65 65 65 65 65 65 65 66 67 67 67 68 68 68 69 70 70 70 69 69 69 69 69 69 69 69 69 68 67 67 67 67 66 66 65 66 67 69 69 70 69 69 69 70 70 71 71
30 25 24 23 21 19 19 19 20 14 16 15 16 38 42 44 44 43 42 40 42 49 44 47 45 42 42 47 53 55 54 55 56 59 61 62 63 64 64 65 64 64 65 65 65 66 67 67 67 67 68 68 69 69 70 70 69 69 69 69 69 69 69 68 68 68 69 66 66 65 66 67 66 66 66 67 68 68 70 68 68 68 68 69 70 70
26 25 24 22 23 19 19 20 22 19 17 16 20 41 42 43 43 43 40 41 44 43 42 44 46 41 43 46 54 54 52 53 54 57 60 61 63 63 64 65 65 66 66 66 66 66 66 67 67 68 67 68 68 69 69 69 69 69 69 69 68 67 67 67 68 67 67 69 66 65 65 64 66 67 67 67 67 67 67 66 67 67 67 68 69 69
25 25 24 22 22 20 20 20 20 18 17 18 18 29 36 35 36 38 41 42 40 41 40 42 45 38 41 44 51 53 52 52 54 56 60 61 62 63 63 65 66 66 66 66 66 66 66 67 67 68 67 67 68 68 69 69 68 68 67 67 66 66 66 66 66 65 66 66 66 65 64 64 64 65 65 65 65 66 66 65 65 66 66 67 67 68
24 41 34 23 20 20 21 20 20 19 19 15 18 27 27 27 29 36 37 38 35 32 36 38 43 41 37 43 51 51 51 52 54 57 59 61 62 62 64 65 65 65 65 65 65 66 66 67 67 67 67 67 68 68 68 68 68 67 66 66 65 66 66 65 65 65 65 65 65 65 65 64 64 64 65 65 65 65 65 65 65 65 66 66 66 67
19 20 23 27 33 24 21 19 21 21 18 14 13 20 22 25 29 27 32 38 30 30 36 39 43 41 35 39 48 52 56 58 55 56 60 61 62 62 63 64 65 65 65 65 65 65 66 66 66 66 66 67 68 68 67 67 66 65 64 64 64 65 65 65 65 65 65 65 65 65 65 65 65 64 65 65 64 65 65 65 65 65 65 65 66 66
19 19 21 20 47 20 20 18 18 19 16 18 25 24 13 18 24 20 30 28 32 31 39 44 43 41 41 42 49 56 57 58 59 57 59 61 61 61 63 64 65 65 65 64 64 65 65 65 65 66 66 67 67 67 66 65 65 64 63 63 63 63 65 65 65 65 65 65 65 65 65 65 66 65 65 65 64 65 65 65 65 65 65 65 65 65
18 20 21 21 21 30 18 17 17 16 16 13 14 18 15 12 14 15 23 30 33 36 38 46 45 39 42 45 53 57 58 59 60 60 59 62 61 61 63 64 64 64 64 64 64 65 65 65 66 66 66 66 67 66 66 66 65 64 63 63 63 63 64 65 65 64 64 64 64 65 65 65 66 65 65 66 65 65 65 65 65 65 65 65 65 65
20 14 16 20 16 21 18 18 18 18 16 13 14 11 13 16 11 13 23 28 32 36 39 44 38 37 41 43 56 58 59 60 61 61 61 61 62 63 64 64 64 64 64 64 64 65 65 65 66 66 65 65 66 65 64 64 63 63 63 63 63 63 64 64 64 64 64 64 64 64 64 65 66 66 65 66 67 65 65 65 65 65 65 65 65 66
17 18 21 22 23 18 18 20 18 14 14 15 13 10 10 10 24 14 18 33 37 37 37 42 41 45 46 52 58 59 59 60 61 61 62 62 62 63 63 63 63 64 64 65 65 65 66 66 66 65 65 64 64 64 64 64 64 63 63 63 63 63 63 64 64 64 64 64 64 64 64 64 66 66 65 66 66 65 65 65 65 65 65 65 65 66
20 16 17 17 20 16 16 23 19 15 14 17 9 12 10 19 40 38 43 39 41 36 36 43 45 47 50 50 57 58 58 59 60 61 61 61 62 62 62 63 63 64 64 64 65 65 65 66 66 65 64 64 65 64 64 65 64 63 62 62 62 63 63 63 64 64 64 64 63 63 64 64 64 64 64 64 64 65 65 65 65 64 65 65 65 66
16 15 17 15 13 15 17 19 19 20 16 7 10 11 25 36 40 36 32 34 37 30 32 45 44 44 42 41 53 56 56 57 59 60 60 61 61 62 62 63 63 64 64 65 65 65 66 66 66 64 64 64 64 64 64 65 64 63 62 62 62 63 63 63 64 64 64 64 63 63 63 63 63 63 63 64 64 64 64 64 65 64 64 65 65 65
16 13 15 15 14 15 20 16 15 17 16 11 9 22 17 23 23 31 33 30 29 30 36 41 45 46 45 44 52 54 55 56 57 58 59 60 61 61 62 63 63 64 64 64 65 65 65 64 62 63 63 64 64 64 65 64 64 63 63 64 63 63 63 63 64 64 64 64 63 63 63 63 63 63 63 63 64 63 63 63 64 64 64 64 65 65
19 14 16 18 16 16 16 18 16 14 13 15 16 13 22 24 28 28 27 34 32 35 35 35 41 40 47 48 52 54 55 56 57 58 59 60 61 62 62 63 63 63 63 64 64 64 62 63 63 64 64 64 64 63 64 65 65 64 63 63 63 64 63 63 63 63 63 63 63 62 62 62 63 64 63 63 63 62 62 62 63 63 64 64 64 64
17 20 16 17 17 14 14 20 15 14 10 10 11 14 28 30 24 29 35 35 36 38 35 34 33 39 44 50 55 56 56 56 57 57 59 60 61 62 62 62 62 62 63 63 62 63 63 63 63 63 63 63 63 64 63 63 63 62 63 62 62 63 63 63 62 62 62 62 62 62 61 61 62 62 63 62 62 62 62 62 63 63 64 64 63 64
18 19 15 20 13 13 12 18 20 15 12 9 9 12 30 29 30 28 29 37 42 38 35 34 33 39 44 59 57 57 57 57 57 58 59 60 61 62 62 61 61 62 62 62 64 64 64 63 63 64 64 65 64 64 64 64 63 63 63 63 63 63 63 62 61 61 61 61 61 61 61 61 61 61 62 62 61 61 61 61 62 63 63 62 63 64
18 23 20 14 15 12 14 16 26 21 17 14 15 21 29 31 31 31 27 30 42 44 42 38 34 35 50 57 58 59 58 58 58 59 60 61 61 61 60 61 61 62 63 64 63 64 64 64 64 65 64 64 65 65 64 64 63 64 64 64 64 63 62 61 61 61 61 60 60 60 60 60 60 60 61 61 61 61 61 61 61 63 62 62 62 63
48 19 19 21 30 35 34 32 34 36 30 24 30 31 31 28 30 30 31 35 40 43 38 38 37 38 49 59 60 60 60 60 60 60 60 61 60 61 61 61 61 62 63 63 63 64 64 64 64 64 64 64 64 64 63 64 64 64 65 64 62 62 62 61 60 60 59 58 58 58 59 59 60 60 60 60 60 60 61 61 61 62 62 62 62 62
19 24 21 19 22 24 28 32 31 34 37 36 36 40 42 42 42 39 41 42 39 42 39 34 30 33 46 61 60 60 60 60 60 60 61 60 61 61 61 61 61 62 62 63 63 63 64 64 64 63 64 64 63 63 64 64 64 63 63 62 61 61 61 61 61 59 58 58 58 58 59 59 59 59 60 60 60 60 60 60 61 61 61 62 61 62
18 29 22 15 19 19 20 22 26 30 35 37 40 39 40 39 37 35 34 40 32 39 38 35 34 42 53 59 59 60 60 60 60 61 61 62 61 61 61 60 61 61 62 62 62 63 63 64 64 63 63 63 63 63 63 63 63 63 62 61 60 60 60 60 59 59 58 58 58 58 58 58 59 59 59 60 59 60 60 60 60 61 60 62 61 62
26 38 29 27 23 22 28 33 35 45 36 34 37 39 39 40 38 39 37 35 31 39 42 41 38 51 55 57 58 58 59 58 59 60 60 61 61 60 60 60 60 61 61 61 62 63 63 63 62 63 63 63 63 63 63 62 62 61 61 60 60 60 60 60 58 58 57 56 57 57 58 58 58 59 59 59 59 59 59 59 60 60 60 62 61 61
31 25 32 33 31 24 28 38 35 41 34 37 37 38 40 40 40 38 32 33 40 40 35 42 48 50 52 57 57 58 58 59 59 60 61 60 60 60 60 61 63 61 61 62 62 63 62 62 62 62 62 62 62 62 62 62 61 60 59 59 59 60 59 59 58 57 56 56 55 56 56 58 59 59 59 59 59 59 59 59 60 60 60 61 60 61
27 20 23 40 38 39 35 37 39 39 40 40 40 39 39 41 41 40 44 43 40 35 33 39 50 47 51 56 58 58 59 59 59 60 61 61 61 61 61 61 61 61 62 62 62 62 61 61 61 61 61 61 61 61 61 60 60 60 59 59 58 57 57 58 57 56 56 56 56 56 56 58 59 59 58 59 59 59 59 59 59 59 59 59 59 61
31 32 39 39 39 39 40 39 40 39 42 46 46 47 46 45 45 48 51 52 48 43 44 49 51 49 51 56 58 59 59 58 59 60 61 60 61 61 60 60 61 61 61 62 62 61 61 61 60 60 59 60 60 60 60 59 59 59 58 57 57 56 57 56 55 55 55 55 56 56 56 57 59 58 58 58 58 58 58 59 59 59 58 58 58 58
33 36 41 39 39 38 41 43 43 43 45 46 47 47 48 48 49 51 53 53 53 52 52 51 50 49 53 55 57 57 58 59 59 60 60 60 61 61 60 60 61 61 61 61 61 61 60 60 59 59 59 59 59 59 58 58 58 58 58 58 58 57 58 56 55 55 54 54 55 56 56 57 57 58 57 58 58 58 58 58 58 58 57 57 57 57
36 34 37 39 37 38 40 42 43 44 43 44 44 44 44 45 44 48 47 50 48 49 50 49 46 48 52 57 58 58 58 58 58 59 59 59 61 61 60 60 60 60 61 60 60 60 59 59 58 58 58 58 58 58 57 57 56 57 57 57 57 58 58 56 55 55 55 55 55 55 56 57 57 57 57 57 57 58 58 57 56 56 56 56 57 56
32 33 36 37 37 37 40 41 39 38 37 37 41 44 45 48 48 51 52 54 53 52 48 44 46 49 56 58 57 56 57 57 58 58 59 59 60 61 60 60 59 60 60 60 60 60 59 58 58 58 58 58 58 57 57 56 55 55 55 55 56 57 55 55 55 54 55 55 54 55 56 57 57 57 57 57 57 57 57 56 55 55 55 54 56 55
37 36 36 39 38 38 39 38 42 36 34 36 42 47 48 48 49 48 49 52 53 52 49 49 48 54 57 57 56 56 56 57 58 58 60 59 59 59 60 59 60 60 60 60 59 59 58 58 57 57 57 58 58 58 58 58 56 56 57 57 56 55 54 54 54 54 54 55 54 55 56 56 57 57 57 57 57 57 56 56 55 55 55 54 54 54
38 34 33 38 39 38 39 37 34 29 36 42 51 54 50 49 52 52 53 54 54 54 54 54 55 57 57 57 57 57 56 57 58 58 58 59 59 59 59 59 59 60 60 59 59 58 57 57 56 56 55 56 57 57 56 55 56 55 55 54 54 54 54 54 54 54 54 55 55 54 55 56 56 57 57 57 56 56 56 55 55 54 55 54 53 53
32 31 39 36 38 38 38 35 26 29 39 49 51 53 55 53 53 48 47 51 54 54 54 54 55 56 57 57 57 57 55 52 51 54 58 59 60 59 58 59 59 59 59 59 58 57 56 55 55 55 56 58 56 56 55 55 55 54 54 54 54 53 53 53 53 53 54 55 55 55 55 56 56 56 56 56 56 56 55 55 55 54 56 54 53 52
31 37 36 36 39 37 36 36 37 45 45 47 49 50 51 48 48 44 41 45 52 55 55 55 55 57 57 56 55 53 51 51 50 50 50 58 59 58 58 59 59 59 59 59 58 56 55 55 55 57 57 55 55 55 55 55 56 55 55 54 53 53 52 52 52 53 54 54 54 55 55 56 57 57 56 56 56 55 55 55 54 54 57 53 53 52
36 31 35 35 35 45 43 39 39 38 38 43 48 51 51 50 51 50 47 46 52 55 56 56 56 56 55 52 50 50 53 51 49 49 50 54 56 57 58 59 59 59 59 57 55 54 55 55 56 57 55 55 56 56 56 56 55 55 55 55 53 52 51 51 52 53 54 53 54 54 55 57 57 58 57 56 56 56 55 55 54 54 55 53 52 52
41 38 37 37 39 41 40 39 36 36 39 44 46 48 49 52 51 51 43 42 49 55 56 56 56 56 53 52 49 51 51 49 48 48 50 53 55 57 58 59 58 56 56 54 53 53 53 53 54 56 55 54 54 55 55 55 54 55 55 57 53 51 51 51 53 53 52 53 54 55 56 57 57 57 56 56 56 57 56 56 56 55 53 53 52 52
43 44 42 40 41 42 39 36 37 39 41 46 48 48 47 49 45 43 38 39 48 55 56 56 56 54 51 50 50 51 49 48 48 48 50 51 53 55 57 58 58 57 54 52 52 52 54 57 54 51 51 52 53 54 54 54 55 57 56 56 53 51 52 52 53 53 53 53 54 54 56 57 58 58 57 56 56 56 56 58 55 54 53 52 52 51
43 44 44 40 42 44 45 39 39 42 46 50 47 46 46 51 44 39 36 41 50 55 56 56 54 53 50 50 50 50 48 49 49 50 50 51 53 56 58 59 58 54 52 52 54 57 53 51 51 50 50 52 53 53 56 53 54 55 55 54 51 52 52 53 54 53 52 53 53 54 55 56 56 58 58 58 56 58 56 56 54 54 53 52 52 51
40 43 45 43 42 39 39 39 38 41 45 46 46 45 48 48 40 40 44 48 55 54 55 55 54 53 51 50 49 49 50 50 52 50 50 50 51 53 54 54 53 53 54 56 56 53 52 51 52 52 52 53 54 57 53 52 55 57 55 51 51 52 53 54 54 52 53 53 53 55 55 56 58 59 59 59 58 55 54 55 55 56 53 52 51 50
40 40 40 40 42 42 40 38 36 35 45 45 45 48 51 45 45 47 48 47 50 52 49 49 49 49 49 49 50 50 50 49 48 49 48 49 50 51 52 52 52 52 53 52 52 55 52 51 52 53 52 53 53 53 52 52 54 56 57 52 52 52 53 55 53 53 53 54 53 54 56 56 55 56 57 59 59 56 55 54 54 53 54 52 52 51
47 43 41 42 43 39 37 35 36 41 45 45 47 46 47 51 52 50 48 47 47 48 48 49 50 50 50 50 50 50 49 48 47 47 47 48 49 50 50 51 52 51 51 50 52 54 54 51 53 53 52 52 54 53 53 52 53 55 57 54 53 54 56 54 53 52 53 55 53 53 53 55 54 53 53 55 56 57 56 54 53 54 53 52 52 51
43 44 45 41 44 43 42 43 45 47 46 44 48 48 48 48 48 47 46 47 47 48 51 50 50 50 50 50 50 49 48 47 47 47 47 47 48 48 49 49 50 50 50 50 51 55 53 51 52 52 52 52 52 53 54 53 53 56 56 54 56 56 54 55 55 53 52 51 52 53 52 52 51 52 52 52 53 52 54 54 54 54 52 52 50 50
47 47 47 44 44 46 46 46 48 46 45 45 44 46 44 45 46 46 47 47 48 50 51 50 50 50 50 50 49 49 49 48 48 47 47 46 46 48 50 48 49 50 50 51 53 55 52 52 52 52 52 53 53 53 56 54 53 55 54 55 56 53 54 55 55 54 53 52 52 51 52 51 52 54 53 52 51 52 54 53 54 55 54 51 51 51
47 47 45 44 45 42 39 45 44 45 45 45 45 45 46 46 47 48 48 49 50 51 51 51 51 51 50 50 50 49 49 49 48 47 48 47 47 47 47 48 48 49 50 51 53 56 53 52 51 52 56 55 54 53 53 53 52 54 55 57 53 54 55 56 54 52 51 49 50 51 52 52 54 55 53 52 51 50 51 53 52 53 56 53 49 50
44 47 45 45 44 41 42 45 47 48 48 47 47 45 45 46 47 48 49 49 51 52 51 51 51 50 51 50 50 50 50 50 48 48 48 48 47 48 47 47 48 48 50 51 54 54 52 51 50 54 56 56 55 52 52 53 52 53 53 53 53 53 55 56 55 50 48 48 50 51 54 54 54 54 52 52 51 49 49 50 51 52 53 53 51 50
46 52 43 46 44 44 45 46 46 44 44 45 46 47 47 46 46 47 48 49 49 50 50 50 51 50 50 50 51 51 50 50 49 49 48 48 48 48 47 47 48 48 49 51 53 53 49 50 53 54 56 56 53 51 51 52 52 53 50 52 52 52 52 53 56 53 48 49 50 49 55 55 53 52 53 51 50 50 50 50 50 50 51 52 52 51
46 44 45 43 42 41 42 43 45 41 41 44 46 47 46 47 46 46 47 48 49 49 49 49 50 51 51 51 50 50 49 50 49 49 48 48 49 49 48 48 48 48 49 51 53 51 52 56 53 54 55 54 52 52 53 53 53 52 52 52 52 52 54 56 55 52 50 52 52 52 55 55 51 51 54 51 50 50 51 55 50 50 52 52 57 56
45 45 44 43 42 42 44 44 47 45 44 45 45 47 48 46 46 46 47 47 48 49 49 49 49 50 50 50 52 50 50 50 49 49 49 48 49 49 49 48 48 48 49 51 50 50 52 53 56 56 55 55 54 54 54 54 53 51 51 53 52 52 53 52 53 53 50 54 51 54 54 54 51 53 52 51 50 50 51 51 51 45 45 48 53 51